Regional Weather Roundup
Issued by NWS

Home | Current Version | Previous Version | Text Only | Print | Product List | Glossary On
Versions: 1 2 3 4 5 6 7 8 9 10 11 12 13 14 15 16 17 18 19 20 21 22 23 24 25 26 27 28 29 30 31 32 33 34 35 36 37 38 39 40 41 42 43 44 45 46 47 48 49 50
000
ASUS43 KMKX 061311
RWRWI

WISCONSIN REGIONAL WEATHER ROUNDUP
NATIONAL WEATHER SERVICE MILWAUKEE/SULLIVAN WI
700 AM CST TUE DEC 06 2016

NOTE: "FAIR" INDICATES FEW OR NO CLOUDS BELOW 12,000 FEET WITH NO
SIGNIFICANT WEATHER AND/OR OBSTRUCTIONS TO VISIBILITY.

WIZ001-002-006>008-014>016-023>028-061400-
NORTHWEST WISCONSIN

CITY           SKY/WX    TMP DP  RH WIND       PRES   REMARKS
SUPERIOR ARPT  CLOUDY    32  25  76 SW17G25   29.60R WCI  21
ASHLAND        CLOUDY    34  31  88 MISG      29.61S
HAYWARD        LGT SNOW  31  28  89 SW16      29.62S FOG     WCI  20
SIREN          FLURRIES  29  23  76 SW15      29.65S WCI  18
CUMBERLAND     LGT SNOW  28  27  93 SW13G20   29.66R WCI  18
RICE LAKE      LGT SNOW  30  27  91 SW8G17    29.68S WCI  22
CHETEK         LGT SNOW  30  29  96 SW10G17   29.68S WCI  21
LADYSMITH      LGT SNOW  32  32  99 S7        29.67F WCI  26
EAU CLAIRE     LGT SNOW  31  30  96 SW13      29.70R FOG     WCI  21
MENOMONIE      LGT SNOW  31  30  96 S7        29.71S WCI  24
NEW RICHMOND   CLOUDY    28  23  81 W17G23    29.68S WCI  16
OSCEOLA        CLOUDY    28  22  76 SW17G23   29.72S WCI  16
$$

WIZ003>005-009-010-017-018-061400-
NORTH CENTRAL WISCONSIN

CITY           SKY/WX    TMP DP  RH WIND       PRES   REMARKS
MANITOWISH WTR CLOUDY    30  30 100 S13G20    29.65F WCI  20
ARBOR VITAE    CLOUDY    32  29  90 S12G17    29.67F WCI  23
WOODRUFF       CLOUDY    32  29  90 S12G17    29.67F WCI  23
RHINELANDER    CLOUDY    31  28  89 S9        29.70S WCI  23
EAGLE RIVER    CLOUDY    30  26  85 S8        29.69S WCI  23
LAND O LAKES   CLOUDY    32  28  85 S10G18    29.69F WCI  23
PHILLIPS       LGT SNOW  31  30  99 SE10G16   29.65S WCI  22
TOMAHAWK       CLOUDY    30  28  91 S5        29.70F FOG     WCI  25
MEDFORD        LGT SNOW  30  28  95 S13       29.69F WCI  20
MERRILL        CLOUDY    30  29  95 S6        29.73S FOG     WCI  24
$$

WIZ029-030-035-036-043>047-061400-
CENTRAL WISCONSIN

CITY           SKY/WX    TMP DP  RH WIND       PRES   REMARKS
WAUSAU         CLOUDY    30  28  92 S10       29.73F WCI  21
MOSINEE        CLOUDY    30  30 100 S12       29.75F FOG     WCI  21
MARSHFIELD     CLOUDY    30  28  92 S14       29.72S FOG     WCI  19
STEVENS POINT  CLOUDY    29  28  98 S9        29.76S FOG     WCI  20
WAUPACA        CLOUDY    33  31  90 S9        29.80S FOG     WCI  26
WAUTOMA        CLOUDY    31  29  92 S7        29.80S FOG     WCI  24
WISC RAPIDS    CLOUDY    31  30  96 S7        29.77S WCI  24
CAMP DOUGLAS   CLOUDY    32  28  86 S8        29.77S WCI  25
$$

WIZ011>013-019>022-031-037>040-048>050-061400-
NORTHEAST WISCONSIN

CITY           SKY/WX    TMP DP  RH WIND       PRES   REMARKS
ANTIGO         CLOUDY    29  28  96 S12       29.74S FOG     WCI  19
SHAWANO        CLOUDY    37  33  89 CALM      29.79S
OCONTO         CLOUDY    38  35  87 S7G16     29.79F WCI  33
STURGEON BAY   CLOUDY    37  34  89 SE13      29.81  WCI  29
GREEN BAY      CLOUDY    37  35  92 S9        29.79F WCI  30
MANITOWOC      CLOUDY    39  34  82 SE12      29.80F WCI  32
APPLETON       CLOUDY    34  34 100 S7        29.78F WCI  28
CLINTONVILLE   CLOUDY    32  32 100 S9G18     29.79F WCI  24
OSHKOSH        CLOUDY    33  31  92 W7        29.81S FOG     WCI  27
$$

WIZ032>034-041-042-053>061-061400-
SOUTHWEST WISCONSIN

CITY           SKY/WX    TMP DP  RH WIND       PRES   REMARKS
LA CROSSE      LGT SNOW  34  32  92 S9        29.75F FOG     WCI  27
SPARTA         LGT SNOW  32  31  95 S6        29.77F WCI  26
VIROQUA        CLOUDY    31  31 100 S9        29.75F VSB 1   WCI  22
BOSCOBEL       CLOUDY    33  31  92 SW3       29.80F FOG
PRAIRIE DU CHI CLOUDY    32  31  97 E3        29.79S FOG
PLATTEVILLE    CLOUDY    32  32 100 SE6       29.79F VSB 1/2 WCI  26
$$

WIZ056-057-062-063-064-067-068-061400-
SOUTH CENTRAL WISCONSIN

CITY           SKY/WX    TMP DP  RH WIND       PRES   REMARKS
REEDSBURG      CLOUDY    31  31 100 CALM      29.78F
BARABOO/DELLS  CLOUDY    31  30  96 S7        29.78F WCI  24
LONE ROCK      CLOUDY    32  31  96 CALM      29.80F
MINERAL POINT  FOG       32  32 100 S6        29.78F VSB 1/2 WCI  26
MADISON        FRZ DRZL  32  30  92 S6        29.81S FOG     WCI  26
MIDDLETON      NOT AVBL
WATERTOWN      CLOUDY    32  32 100 W3        29.81R FOG
MONROE         FOG       32  32 100 SW6       29.80S VSB 3/4 WCI  26
JANESVILLE     CLOUDY    34  34 100 CALM      29.81S FOG
$$

WIZ051-052-058>065-066-070>072-061400-
SOUTHEAST WISCONSIN

CITY           SKY/WX    TMP DP  RH WIND       PRES   REMARKS
MILWAUKEE      CLOUDY    39  33  79 SE6       29.80F WCI  35
WAUKESHA       MOCLDY    32  32 100 SE7       29.80F FOG     WCI  26
MILWAUKEE/TIMM CLEAR     34  30  86 CALM      29.81F FOG
RACINE         PTCLDY    37  33  85 SE5       29.81F WCI  33
BURLINGTON     CLOUDY    32  32 100 CALM      29.80S FOG
KENOSHA        PTCLDY    32  30  92 CALM      29.80S FOG
FOND DU LAC    CLOUDY    35  30  82 SW7       29.81R WCI  29
SHEBOYGAN      CLOUDY    35  32  88 CALM      29.80F FOG
WEST BEND      CLOUDY    32  32 100 CALM      29.79F FOG
JUNEAU         FOG       31  31  99 SW6       29.82R VSB<1/4 WCI  25
$$

LSZ147-162-061400-
LAKE SUPERIOR

STATION/POSITION TIME  TEMP    WIND        PRES    WAVE
                       AIR SEA DIR/SP/G            HT/PER
                 (UTC) (F)     (DEG/KT/KT) (MB)    (FT/S)
DEVILS ISLAND    1200   36     170/ 12/ 17 1003.4F
PORT WING        1240   35     200/  8/ 15 1002.4F
SAXON HARBOR     1240   36     190/  8/ 14 1003.4S
$$

LMZ867-665-643>646-061400-
LAKE MICHIGAN

STATION/POSITION TIME  TEMP    WIND        PRES    WAVE
                       AIR SEA DIR/SP/G            HT/PER
                 (UTC) (F)     (DEG/KT/KT) (MB)    (FT/S)
CHAMBERS ISLAND  1240   39     150/  6/ 14 1009.5F
NORTHPORT PIER   1240   40     150/ 13/ 17 1010.5S
SISTER BAY       1238   39     170/ 13/ 17   N/A
ALGOMA LAKESHORE 1251          180/ 19/ 23   N/A
KEWAUNEE LAKESHO 1248   39     160/ 19/ 21 1009.4F
SHEBOYGAN LAKESH 1300   40     140/ 15/ 16 1009.4F
PORT WASHINGTON  1230   41     140/  9/ 11 1010.5F
MILWAUKEE LAKESH 1250   40     130/ 11/ 12   N/A
KENOSHA   LAKESH 1200   40     110/  9/ 11 1009.5
$$

TC  - TEMPERATURE IN CELSIUS
VSB - VISIBILITY IN STATUTE MILES
WCI - WIND CHILL INDEX
HX  - HEAT INDEX





USA.gov is the U.S. government's official web portal to all federal, state and local government web resources and services.